Time,TemperatureF,DewpointF,PressureIn,WindDirection,WindDirectionDegrees,WindSpeedMPH,WindSpeedGustMPH,Humidity,HourlyPrecipIn,Conditions,Clouds,dailyrainin,SoftwareType,DateUTC
2013-04-23 00:00:00,36.3,27.5,30.45,SSW,202,0.0,0.0,70,0.00,,CLR,0.00,VWS V14.01,2013-04-23 07:00:00,
2013-04-23 00:05:00,36.3,27.5,30.45,SSW,202,0.0,0.0,70,0.00,,CLR,0.00,VWS V14.01,2013-04-23 07:05:00,
2013-04-23 00:10:00,36.1,27.3,30.45,SSW,202,0.0,0.0,70,0.00,,CLR,0.00,VWS V14.01,2013-04-23 07:10:00,
2013-04-23 00:15:00,35.9,27.1,30.45,SSW,202,0.0,0.0,70,0.00,,CLR,0.00,VWS V14.01,2013-04-23 07:15:00,
2013-04-23 00:20:00,35.7,26.9,30.45,SSW,202,0.0,0.0,70,0.00,,CLR,0.00,VWS V14.01,2013-04-23 07:20:00,
2013-04-23 00:25:00,35.4,27.0,30.45,SSW,202,0.0,0.0,71,0.00,,CLR,0.00,VWS V14.01,2013-04-23 07:25:00,
2013-04-23 00:30:00,35.4,27.0,30.45,SSW,202,0.0,0.0,71,0.00,,CLR,0.00,VWS V14.01,2013-04-23 07:30:00,
2013-04-23 00:35:00,35.2,27.1,30.45,SSW,202,0.0,0.0,72,0.00,,CLR,0.00,VWS V14.01,2013-04-23 07:35:00,
2013-04-23 00:40:00,35.2,26.8,30.44,SSW,202,0.0,0.0,71,0.00,,CLR,0.00,VWS V14.01,2013-04-23 07:40:00,
2013-04-23 00:45:00,34.8,26.4,30.44,SSW,202,0.0,0.0,71,0.00,,CLR,0.00,VWS V14.01,2013-04-23 07:45:00,
2013-04-23 00:50:00,34.8,26.7,30.44,SSW,202,0.0,0.0,72,0.00,,CLR,0.00,VWS V14.01,2013-04-23 07:50:00,
2013-04-23 00:55:00,34.7,26.6,30.44,SSW,202,0.0,0.0,72,0.00,,CLR,0.00,VWS V14.01,2013-04-23 07:55:00,
2013-04-23 01:00:00,34.5,26.8,30.44,SSW,202,0.0,0.0,73,0.00,,CLR,0.00,VWS V14.01,2013-04-23 08:00:00,
2013-04-23 01:05:00,34.5,26.8,30.44,SSW,202,0.0,0.0,73,0.00,,CLR,0.00,VWS V14.01,2013-04-23 08:05:00,
2013-04-23 01:10:00,34.3,26.6,30.44,SSW,202,0.0,0.0,73,0.00,,CLR,0.00,VWS V14.01,2013-04-23 08:10:00,
2013-04-23 01:15:00,34.3,26.6,30.44,SSW,202,0.0,0.0,73,0.00,,CLR,0.00,VWS V14.01,2013-04-23 08:15:00,
2013-04-23 01:20:00,34.3,26.6,30.43,SSW,202,0.0,0.0,73,0.00,,CLR,0.00,VWS V14.01,2013-04-23 08:20:00,
2013-04-23 01:25:00,34.3,26.6,30.43,SSW,202,0.0,0.0,73,0.00,,CLR,0.00,VWS V14.01,2013-04-23 08:25:00,
2013-04-23 01:30:00,34.1,26.4,30.43,SSW,202,0.0,0.0,73,0.00,,CLR,0.00,VWS V14.01,2013-04-23 08:30:00,
2013-04-23 01:35:00,33.9,26.2,30.43,SSW,202,0.0,0.0,73,0.00,,CLR,0.00,VWS V14.01,2013-04-23 08:35:00,
2013-04-23 01:40:00,33.8,26.4,30.44,SSW,202,0.0,0.0,74,0.00,,CLR,0.00,VWS V14.01,2013-04-23 08:40:00,
2013-04-23 01:45:00,33.6,26.2,30.43,SSW,202,0.0,0.0,74,0.00,,CLR,0.00,VWS V14.01,2013-04-23 08:45:00,
2013-04-23 01:50:00,33.6,26.2,30.43,SSW,202,0.0,0.0,74,0.00,,CLR,0.00,VWS V14.01,2013-04-23 08:50:00,
2013-04-23 01:55:00,33.6,26.5,30.44,SSW,202,0.0,0.0,75,0.00,,CLR,0.00,VWS V14.01,2013-04-23 08:55:00,
2013-04-23 02:00:00,33.4,26.3,30.43,SSW,202,0.0,0.0,75,0.00,,CLR,0.00,VWS V14.01,2013-04-23 09:00:00,
2013-04-23 02:05:00,33.4,26.3,30.43,SSW,202,0.0,0.0,75,0.00,,CLR,0.00,VWS V14.01,2013-04-23 09:05:00,
2013-04-23 02:10:00,33.2,26.1,30.43,SSW,202,0.0,0.0,75,0.00,,CLR,0.00,VWS V14.01,2013-04-23 09:10:00,
2013-04-23 02:15:00,33.2,26.5,30.43,SSW,202,0.0,0.0,76,0.00,,CLR,0.00,VWS V14.01,2013-04-23 09:15:00,
2013-04-23 02:20:00,33.0,26.3,30.43,SSW,202,0.0,0.0,76,0.00,,CLR,0.00,VWS V14.01,2013-04-23 09:20:00,
2013-04-23 02:25:00,33.0,26.3,30.43,SSW,202,0.0,0.0,76,0.00,,CLR,0.00,VWS V14.01,2013-04-23 09:25:00,
2013-04-23 02:30:00,32.9,26.2,30.43,SSW,202,0.0,0.0,76,0.00,,CLR,0.00,VWS V14.01,2013-04-23 09:30:00,
2013-04-23 02:35:00,32.9,26.2,30.42,SSW,202,0.0,0.0,76,0.00,,CLR,0.00,VWS V14.01,2013-04-23 09:35:00,
2013-04-23 02:40:00,32.7,26.3,30.43,SSW,202,0.0,0.0,77,0.00,,CLR,0.00,VWS V14.01,2013-04-23 09:40:00,
2013-04-23 02:45:00,32.7,26.3,30.42,SSW,202,0.0,0.0,77,0.00,,CLR,0.00,VWS V14.01,2013-04-23 09:45:00,
2013-04-23 02:50:00,32.7,26.3,30.42,SSW,202,0.0,0.0,77,0.00,,CLR,0.00,VWS V14.01,2013-04-23 09:50:00,
2013-04-23 02:55:00,32.7,26.3,30.42,SSW,202,0.0,0.0,77,0.00,,CLR,0.00,VWS V14.01,2013-04-23 09:55:00,
2013-04-23 03:00:00,32.7,26.6,30.42,SSW,202,0.0,0.0,78,0.00,,CLR,0.00,VWS V14.01,2013-04-23 10:00:00,
2013-04-23 03:05:00,32.5,26.4,30.41,SSW,202,0.0,0.0,78,0.00,,CLR,0.00,VWS V14.01,2013-04-23 10:05:00,
2013-04-23 03:10:00,32.5,26.4,30.41,SSW,202,0.0,0.0,78,0.00,,CLR,0.00,VWS V14.01,2013-04-23 10:10:00,
2013-04-23 03:15:00,32.5,26.4,30.41,SSW,202,0.0,0.0,78,0.00,,CLR,0.00,VWS V14.01,2013-04-23 10:15:00,
2013-04-23 03:20:00,32.5,26.4,30.41,SSW,202,0.0,0.0,78,0.00,,CLR,0.00,VWS V14.01,2013-04-23 10:20:00,
2013-04-23 03:25:00,32.3,26.5,30.41,SSW,202,0.0,0.0,79,0.00,,CLR,0.00,VWS V14.01,2013-04-23 10:25:00,
2013-04-23 03:30:00,32.1,26.3,30.41,SSW,202,0.0,0.0,79,0.00,,CLR,0.00,VWS V14.01,2013-04-23 10:30:00,
2013-04-23 03:35:00,32.1,26.3,30.41,SSW,202,0.0,0.0,79,0.00,,CLR,0.00,VWS V14.01,2013-04-23 10:35:00,
2013-04-23 03:40:00,32.0,26.2,30.41,SSW,202,0.0,0.0,79,0.00,,CLR,0.00,VWS V14.01,2013-04-23 10:40:00,
2013-04-23 03:45:00,31.8,26.0,30.41,SSW,202,0.0,0.0,79,0.00,,CLR,0.00,VWS V14.01,2013-04-23 10:45:00,
2013-04-23 03:50:00,31.8,26.0,30.40,SSW,202,0.0,0.0,79,0.00,,CLR,0.00,VWS V14.01,2013-04-23 10:50:00,
2013-04-23 03:55:00,31.8,26.0,30.40,SSW,202,0.0,0.0,79,0.00,,CLR,0.00,VWS V14.01,2013-04-23 10:55:00,
2013-04-23 04:00:00,31.8,26.0,30.40,SSW,202,0.0,0.0,79,0.00,,CLR,0.00,VWS V14.01,2013-04-23 11:00:00,
2013-04-23 04:05:00,31.6,25.9,30.41,SSW,202,0.0,0.0,79,0.00,,CLR,0.00,VWS V14.01,2013-04-23 11:05:00,
2013-04-23 04:10:00,31.6,26.1,30.41,SSW,202,0.0,0.0,80,0.00,,CLR,0.00,VWS V14.01,2013-04-23 11:10:00,
2013-04-23 04:15:00,31.6,26.1,30.41,SSW,202,0.0,0.0,80,0.00,,CLR,0.00,VWS V14.01,2013-04-23 11:15:00,
2013-04-23 04:20:00,31.6,26.1,30.41,SSW,202,0.0,0.0,80,0.00,,CLR,0.00,VWS V14.01,2013-04-23 11:20:00,
2013-04-23 04:25:00,31.4,26.0,30.41,SSW,202,0.0,0.0,80,0.00,,CLR,0.00,VWS V14.01,2013-04-23 11:25:00,
2013-04-23 04:30:00,31.2,25.8,30.41,SSW,202,0.0,0.0,80,0.00,,CLR,0.00,VWS V14.01,2013-04-23 11:30:00,
2013-04-23 04:35:00,31.2,25.8,30.41,SSW,202,0.0,0.0,80,0.00,,CLR,0.00,VWS V14.01,2013-04-23 11:35:00,
2013-04-23 04:40:00,31.2,25.8,30.41,SSW,202,0.0,0.0,80,0.00,,CLR,0.00,VWS V14.01,2013-04-23 11:40:00,
2013-04-23 04:45:00,31.1,25.7,30.41,SSW,202,0.0,0.0,80,0.00,,CLR,0.00,VWS V14.01,2013-04-23 11:45:00,
2013-04-23 04:50:00,31.1,25.7,30.41,SSW,202,0.0,0.0,80,0.00,,CLR,0.00,VWS V14.01,2013-04-23 11:50:00,
2013-04-23 04:55:00,31.1,25.7,30.40,SSW,202,0.0,0.0,80,0.00,,CLR,0.00,VWS V14.01,2013-04-23 11:55:00,
2013-04-23 05:00:00,31.1,25.7,30.40,SSW,202,0.0,0.0,80,0.00,,CLR,0.00,VWS V14.01,2013-04-23 12:00:00,
2013-04-23 05:05:00,30.9,25.8,30.40,SSW,202,0.0,0.0,81,0.00,,CLR,0.00,VWS V14.01,2013-04-23 12:05:00,
2013-04-23 05:10:00,30.9,25.8,30.40,SSW,202,0.0,0.0,81,0.00,,CLR,0.00,VWS V14.01,2013-04-23 12:10:00,
2013-04-23 05:15:00,31.1,26.0,30.40,SSW,202,0.0,0.0,81,0.00,,CLR,0.00,VWS V14.01,2013-04-23 12:15:00,
2013-04-23 05:20:00,30.9,25.8,30.40,SSW,202,0.0,0.0,81,0.00,,CLR,0.00,VWS V14.01,2013-04-23 12:20:00,
2013-04-23 05:25:00,30.9,25.8,30.40,SSW,202,0.0,0.0,81,0.00,,CLR,0.00,VWS V14.01,2013-04-23 12:25:00,
2013-04-23 05:30:00,30.9,25.8,30.40,SSW,202,0.0,0.0,81,0.00,,CLR,0.00,VWS V14.01,2013-04-23 12:30:00,
2013-04-23 05:35:00,30.9,25.8,30.39,SSW,202,0.0,0.0,81,0.00,,CLR,0.00,VWS V14.01,2013-04-23 12:35:00,
2013-04-23 05:40:00,30.9,25.8,30.39,SSW,202,0.0,0.0,81,0.00,,CLR,0.00,VWS V14.01,2013-04-23 12:40:00,
2013-04-23 05:45:00,30.7,25.6,30.39,SSW,202,0.0,0.0,81,0.00,,CLR,0.00,VWS V14.01,2013-04-23 12:45:00,
2013-04-23 05:50:00,30.7,25.6,30.39,SSW,202,0.0,0.0,81,0.00,,CLR,0.00,VWS V14.01,2013-04-23 12:50:00,
2013-04-23 05:55:00,30.7,25.6,30.39,SSW,202,0.0,0.0,81,0.00,,CLR,0.00,VWS V14.01,2013-04-23 12:55:00,
2013-04-23 06:00:00,30.7,25.6,30.39,SSW,202,0.0,0.0,81,0.00,,CLR,0.00,VWS V14.01,2013-04-23 13:00:00,
2013-04-23 06:05:00,30.5,25.4,30.39,SSW,202,0.0,0.0,81,0.00,,CLR,0.00,VWS V14.01,2013-04-23 13:05:00,
2013-04-23 06:10:00,30.7,25.9,30.39,SSW,202,0.0,0.0,82,0.00,,CLR,0.00,VWS V14.01,2013-04-23 13:10:00,
2013-04-23 06:15:00,30.5,25.7,30.38,SSW,202,0.0,0.0,82,0.00,,CLR,0.00,VWS V14.01,2013-04-23 13:15:00,
2013-04-23 06:20:00,30.7,25.9,30.38,SSW,202,0.0,0.0,82,0.00,,CLR,0.00,VWS V14.01,2013-04-23 13:20:00,
2013-04-23 06:25:00,30.7,25.9,30.38,SSW,202,0.0,0.0,82,0.00,,CLR,0.00,VWS V14.01,2013-04-23 13:25:00,
2013-04-23 06:30:00,30.7,25.9,30.38,SSW,202,0.0,0.0,82,0.00,,CLR,0.00,VWS V14.01,2013-04-23 13:30:00,
2013-04-23 06:35:00,30.7,25.9,30.38,SSW,202,0.0,0.0,82,0.00,,CLR,0.00,VWS V14.01,2013-04-23 13:35:00,
2013-04-23 06:40:00,30.9,26.1,30.38,SSW,202,0.0,0.0,82,0.00,,CLR,0.00,VWS V14.01,2013-04-23 13:40:00,
2013-04-23 06:45:00,31.1,26.3,30.38,SSW,202,0.0,0.0,82,0.00,,CLR,0.00,VWS V14.01,2013-04-23 13:45:00,
2013-04-23 06:50:00,31.2,26.4,30.38,SSW,202,0.0,0.0,82,0.00,,CLR,0.00,VWS V14.01,2013-04-23 13:50:00,
2013-04-23 06:55:00,31.6,27.0,30.38,SSW,202,0.0,0.0,83,0.00,,CLR,0.00,VWS V14.01,2013-04-23 13:55:00,
2013-04-23 07:00:00,31.8,27.2,30.38,SSW,202,0.0,0.0,83,0.00,,CLR,0.00,VWS V14.01,2013-04-23 14:00:00,
2013-04-23 07:05:00,31.8,26.9,30.38,SSW,202,0.0,0.0,82,0.00,,CLR,0.00,VWS V14.01,2013-04-23 14:05:00,
2013-04-23 07:10:00,32.3,27.7,30.37,SSW,202,0.0,0.0,83,0.00,,CLR,0.00,VWS V14.01,2013-04-23 14:10:00,
2013-04-23 07:15:00,32.5,27.9,30.37,SSW,202,0.0,0.0,83,0.00,,CLR,0.00,VWS V14.01,2013-04-23 14:15:00,
2013-04-23 07:20:00,32.9,28.3,30.37,SSW,202,0.0,0.0,83,0.00,,CLR,0.00,VWS V14.01,2013-04-23 14:20:00,
2013-04-23 07:25:00,33.4,28.5,30.37,SSW,202,0.0,0.0,82,0.00,,CLR,0.00,VWS V14.01,2013-04-23 14:25:00,
2013-04-23 07:30:00,33.6,28.7,30.37,SSW,202,0.0,0.0,82,0.00,,CLR,0.00,VWS V14.01,2013-04-23 14:30:00,
2013-04-23 07:35:00,33.9,29.0,30.37,SSW,202,0.0,0.0,82,0.00,,CLR,0.00,VWS V14.01,2013-04-23 14:35:00,
2013-04-23 07:40:00,34.3,29.7,30.37,SSW,202,0.0,0.0,83,0.00,,CLR,0.00,VWS V14.01,2013-04-23 14:40:00,
2013-04-23 07:45:00,34.8,30.2,30.38,SSW,202,0.0,0.0,83,0.00,,CLR,0.00,VWS V14.01,2013-04-23 14:45:00,
2013-04-23 07:50:00,35.2,30.6,30.38,SSW,202,0.0,0.0,83,0.00,,CLR,0.00,VWS V14.01,2013-04-23 14:50:00,
2013-04-23 07:55:00,35.7,31.0,30.38,SSW,202,0.0,0.0,83,0.00,,CLR,0.00,VWS V14.01,2013-04-23 14:55:00,
2013-04-23 08:00:00,36.1,31.5,30.37,SSW,202,0.0,0.0,83,0.00,,CLR,0.00,VWS V14.01,2013-04-23 15:00:00,
2013-04-23 08:05:00,36.5,31.8,30.37,SSW,202,0.0,0.0,83,0.00,,CLR,0.00,VWS V14.01,2013-04-23 15:05:00,
2013-04-23 08:10:00,37.0,32.3,30.37,SSW,202,0.0,0.0,83,0.00,,CLR,0.00,VWS V14.01,2013-04-23 15:10:00,
2013-04-23 08:15:00,37.4,32.7,30.36,SSW,202,0.0,0.0,83,0.00,,CLR,0.00,VWS V14.01,2013-04-23 15:15:00,
2013-04-23 08:20:00,37.9,33.2,30.36,SSW,202,0.0,0.0,83,0.00,,CLR,0.00,VWS V14.01,2013-04-23 15:20:00,
2013-04-23 08:25:00,38.4,33.4,30.36,SSW,202,0.0,0.0,82,0.00,,CLR,0.00,VWS V14.01,2013-04-23 15:25:00,
2013-04-23 08:30:00,39.0,34.0,30.36,SSW,202,0.0,0.0,82,0.00,,CLR,0.00,VWS V14.01,2013-04-23 15:30:00,
2013-04-23 08:35:00,39.7,35.0,30.35,SSW,202,0.0,0.0,83,0.00,,CLR,0.00,VWS V14.01,2013-04-23 15:35:00,
2013-04-23 08:40:00,40.4,35.3,30.35,SSW,202,0.0,0.0,82,0.00,,CLR,0.00,VWS V14.01,2013-04-23 15:40:00,
2013-04-23 08:45:00,41.0,35.9,30.35,SSW,202,0.0,0.0,82,0.00,,CLR,0.00,VWS V14.01,2013-04-23 15:45:00,
2013-04-23 08:50:00,41.9,36.8,30.36,SSW,202,0.0,0.0,82,0.00,,CLR,0.00,VWS V14.01,2013-04-23 15:50:00,
2013-04-23 08:55:00,43.5,38.1,30.35,SE,135,0.0,0.0,81,0.00,,CLR,0.00,VWS V14.01,2013-04-23 15:55:00,
2013-04-23 09:00:00,44.4,38.6,30.35,SE,135,0.0,0.0,80,0.00,,CLR,0.00,VWS V14.01,2013-04-23 16:00:00,
2013-04-23 09:05:00,45.5,39.0,30.35,SE,135,0.0,0.0,78,0.00,,CLR,0.00,VWS V14.01,2013-04-23 16:05:00,
2013-04-23 09:10:00,47.1,39.6,30.34,SE,135,0.0,0.0,75,0.00,,CLR,0.00,VWS V14.01,2013-04-23 16:10:00,
2013-04-23 09:15:00,48.0,39.4,30.34,ESE,112,0.0,0.0,72,0.00,,CLR,0.00,VWS V14.01,2013-04-23 16:15:00,
2013-04-23 09:20:00,48.7,38.2,30.34,SE,135,0.0,0.0,67,0.00,,CLR,0.00,VWS V14.01,2013-04-23 16:20:00,
2013-04-23 09:25:00,49.8,38.5,30.34,SE,135,0.0,0.0,65,0.00,,CLR,0.00,VWS V14.01,2013-04-23 16:25:00,
2013-04-23 09:30:00,50.1,38.8,30.34,South,180,0.0,0.0,65,0.00,,CLR,0.00,VWS V14.01,2013-04-23 16:30:00,
2013-04-23 09:35:00,50.7,39.0,30.34,SSE,158,0.0,0.0,64,0.00,,CLR,0.00,VWS V14.01,2013-04-23 16:35:00,
2013-04-23 09:40:00,51.8,39.2,30.34,South,180,0.0,0.0,62,0.00,,CLR,0.00,VWS V14.01,2013-04-23 16:40:00,
2013-04-23 09:45:00,52.1,38.7,30.34,SE,135,0.0,0.0,60,0.00,,CLR,0.00,VWS V14.01,2013-04-23 16:45:00,
2013-04-23 09:50:00,52.5,38.2,30.33,ESE,112,0.0,0.0,58,0.00,,CLR,0.00,VWS V14.01,2013-04-23 16:50:00,
2013-04-23 09:55:00,53.6,38.8,30.33,SE,135,0.0,0.0,57,0.00,,CLR,0.00,VWS V14.01,2013-04-23 16:55:00,
2013-04-23 10:00:00,54.1,38.8,30.33,SE,135,0.0,0.0,56,0.00,,CLR,0.00,VWS V14.01,2013-04-23 17:00:00,
2013-04-23 10:05:00,54.5,38.2,30.33,SE,135,0.0,0.0,54,0.00,,CLR,0.00,VWS V14.01,2013-04-23 17:05:00,
2013-04-23 10:10:00,54.3,37.5,30.33,SE,135,0.0,0.0,53,0.00,,CLR,0.00,VWS V14.01,2013-04-23 17:10:00,
2013-04-23 10:15:00,54.5,37.2,30.33,South,180,0.0,0.0,52,0.00,,CLR,0.00,VWS V14.01,2013-04-23 17:15:00,
2013-04-23 10:20:00,54.6,36.3,30.33,South,180,0.0,0.0,50,0.00,,CLR,0.00,VWS V14.01,2013-04-23 17:20:00,
2013-04-23 10:25:00,54.6,36.8,30.33,SE,135,0.0,0.0,51,0.00,,CLR,0.00,VWS V14.01,2013-04-23 17:25:00,
2013-04-23 10:30:00,55.2,37.4,30.33,ESE,112,0.0,0.0,51,0.00,,CLR,0.00,VWS V14.01,2013-04-23 17:30:00,
2013-04-23 10:35:00,55.9,37.0,30.33,SSE,158,0.0,0.0,49,0.00,,CLR,0.00,VWS V14.01,2013-04-23 17:35:00,
2013-04-23 10:40:00,56.6,37.7,30.33,SE,135,0.0,0.0,49,0.00,,CLR,0.00,VWS V14.01,2013-04-23 17:40:00,
2013-04-23 10:45:00,57.0,37.5,30.34,SE,135,0.0,0.0,48,0.00,,CLR,0.00,VWS V14.01,2013-04-23 17:45:00,
2013-04-23 10:50:00,57.3,36.7,30.34,SSE,158,0.0,0.0,46,0.00,,CLR,0.00,VWS V14.01,2013-04-23 17:50:00,
2013-04-23 10:55:00,57.7,36.5,30.34,ESE,112,0.0,0.0,45,0.00,,CLR,0.00,VWS V14.01,2013-04-23 17:55:00,
2013-04-23 11:00:00,57.9,36.7,30.34,SSE,158,0.0,0.0,45,0.00,,CLR,0.00,VWS V14.01,2013-04-23 18:00:00,
2013-04-23 11:05:00,58.1,36.9,30.34,SE,135,0.0,0.0,45,0.00,,CLR,0.00,VWS V14.01,2013-04-23 18:05:00,
2013-04-23 11:10:00,58.4,37.7,30.35,NE,45,0.0,0.0,46,0.00,,CLR,0.00,VWS V14.01,2013-04-23 18:10:00,
2013-04-23 11:15:00,58.8,39.2,30.35,NE,45,0.0,0.0,48,0.00,,CLR,0.00,VWS V14.01,2013-04-23 18:15:00,
2013-04-23 11:20:00,58.8,39.2,30.35,NE,45,0.0,0.0,48,0.00,,CLR,0.00,VWS V14.01,2013-04-23 18:20:00,
2013-04-23 11:25:00,58.4,39.3,30.35,East,90,0.0,0.0,49,0.00,,CLR,0.00,VWS V14.01,2013-04-23 18:25:00,
2013-04-23 11:30:00,58.8,40.2,30.35,SSE,158,0.0,0.0,50,0.00,,CLR,0.00,VWS V14.01,2013-04-23 18:30:00,
2013-04-23 11:35:00,58.8,39.7,30.34,NE,45,0.0,0.0,49,0.00,,CLR,0.00,VWS V14.01,2013-04-23 18:35:00,
2013-04-23 11:40:00,59.3,40.7,30.34,ENE,68,0.0,0.0,50,0.00,,CLR,0.00,VWS V14.01,2013-04-23 18:40:00,
2013-04-23 11:45:00,59.7,40.5,30.34,ENE,68,0.0,0.0,49,0.00,,CLR,0.00,VWS V14.01,2013-04-23 18:45:00,
2013-04-23 11:50:00,59.9,40.7,30.34,ENE,68,0.0,0.0,49,0.00,,CLR,0.00,VWS V14.01,2013-04-23 18:50:00,
2013-04-23 11:55:00,59.7,40.5,30.34,SE,135,0.0,0.0,49,0.00,,CLR,0.00,VWS V14.01,2013-04-23 18:55:00,
2013-04-23 12:00:00,59.5,40.3,30.34,SE,135,0.0,0.0,49,0.00,,CLR,0.00,VWS V14.01,2013-04-23 19:00:00,
2013-04-23 12:06:00,59.5,39.8,30.34,SE,135,0.0,0.0,48,0.00,,FEW100,0.00,VWS V14.01,2013-04-23 19:06:00,
2013-04-23 12:11:00,59.5,39.8,30.34,SSW,202,0.0,0.0,48,0.00,,FEW100,0.00,VWS V14.01,2013-04-23 19:11:00,
2013-04-23 12:16:00,59.5,39.3,30.34,NW,315,0.0,0.0,47,0.00,,FEW100,0.00,VWS V14.01,2013-04-23 19:16:00,
2013-04-23 12:21:00,59.3,38.5,30.33,NW,315,0.0,0.0,46,0.00,,FEW100,0.00,VWS V14.01,2013-04-23 19:21:00,
2013-04-23 12:26:00,59.7,38.9,30.33,SE,135,0.0,0.0,46,0.00,,FEW100,0.00,VWS V14.01,2013-04-23 19:26:00,
2013-04-23 12:31:00,60.0,38.0,30.33,NE,45,0.0,0.0,44,0.00,,FEW100,0.00,VWS V14.01,2013-04-23 19:31:00,
2013-04-23 12:36:00,59.9,38.0,30.33,NE,45,0.0,0.0,44,0.00,,FEW100,0.00,VWS V14.01,2013-04-23 19:36:00,
2013-04-23 12:41:00,59.9,38.5,30.33,NNE,22,0.0,0.0,45,0.00,,FEW100,0.00,VWS V14.01,2013-04-23 19:41:00,
2013-04-23 12:46:00,59.9,38.5,30.32,ESE,112,0.0,0.0,45,0.00,,FEW100,0.00,VWS V14.01,2013-04-23 19:46:00,
2013-04-23 12:51:00,59.9,38.5,30.33,South,180,0.0,0.0,45,0.00,,FEW100,0.00,VWS V14.01,2013-04-23 19:51:00,
2013-04-23 12:56:00,60.2,37.6,30.32,SSE,158,0.0,0.0,43,0.00,,FEW100,0.00,VWS V14.01,2013-04-23 19:56:00,
2013-04-23 13:01:00,60.9,37.7,30.31,ESE,112,0.0,0.0,42,0.00,,FEW100,0.00,VWS V14.01,2013-04-23 20:01:00,
2013-04-23 13:06:00,61.5,37.6,30.32,SE,135,0.0,0.0,41,0.00,,FEW100,0.00,VWS V14.01,2013-04-23 20:06:00,
2013-04-23 13:11:00,62.4,37.8,30.32,ENE,68,0.0,0.0,40,0.00,,FEW100,0.00,VWS V14.01,2013-04-23 20:11:00,
2013-04-23 13:16:00,62.4,38.4,30.32,ESE,112,0.0,0.0,41,0.00,,FEW100,0.00,VWS V14.01,2013-04-23 20:16:00,
2013-04-23 13:21:00,62.6,38.6,30.32,NNE,22,0.0,0.0,41,0.00,,FEW100,0.00,VWS V14.01,2013-04-23 20:21:00,
2013-04-23 13:26:00,62.4,38.4,30.32,NE,45,0.0,0.0,41,0.00,,FEW100,0.00,VWS V14.01,2013-04-23 20:26:00,
2013-04-23 13:31:00,62.4,37.1,30.31,NE,45,0.0,0.0,39,0.00,,FEW100,0.00,VWS V14.01,2013-04-23 20:31:00,
2013-04-23 13:36:00,62.4,37.8,30.32,NE,45,0.0,0.0,40,0.00,,FEW100,0.00,VWS V14.01,2013-04-23 20:36:00,
2013-04-23 13:41:00,62.4,37.1,30.31,NNE,22,0.0,0.0,39,0.00,,FEW100,0.00,VWS V14.01,2013-04-23 20:41:00,
2013-04-23 13:46:00,63.1,38.4,30.31,NNE,22,0.0,0.0,40,0.00,,FEW100,0.00,VWS V14.01,2013-04-23 20:46:00,
2013-04-23 13:51:00,63.6,38.9,30.31,NE,45,0.0,0.0,40,0.00,,FEW100,0.00,VWS V14.01,2013-04-23 20:51:00,
2013-04-23 13:57:00,64.9,40.0,30.31,NNE,22,0.0,0.0,40,0.00,,FEW100,0.00,VWS V14.01,2013-04-23 20:57:00,
2013-04-23 14:02:00,72.3,44.6,30.31,NE,45,0.0,0.0,37,0.00,,SCT090,0.00,VWS V14.01,2013-04-23 21:02:00,
2013-04-23 14:07:00,77.7,46.3,30.31,NNE,22,0.0,0.0,33,0.00,,SCT090,0.00,VWS V14.01,2013-04-23 21:07:00,
2013-04-23 14:12:00,81.3,46.0,30.31,NE,45,0.0,0.0,29,0.00,,SCT090,0.00,VWS V14.01,2013-04-23 21:12:00,
2013-04-23 14:17:00,84.0,47.4,30.30,NNW,338,0.0,0.0,28,0.00,,SCT090,0.00,VWS V14.01,2013-04-23 21:17:00,
2013-04-23 14:22:00,85.4,47.7,30.30,SW,225,0.0,0.0,27,0.00,,SCT090,0.00,VWS V14.01,2013-04-23 21:22:00,
2013-04-23 14:27:00,86.7,47.8,30.30,East,90,2.0,2.0,26,0.00,,SCT090,0.00,VWS V14.01,2013-04-23 21:27:00,
2013-04-23 14:32:00,87.6,47.5,30.31,South,180,0.0,0.0,25,0.00,,SCT090,0.00,VWS V14.01,2013-04-23 21:32:00,
2013-04-23 14:37:00,85.6,45.8,30.31,NNE,22,0.0,0.0,25,0.00,,SCT090,0.00,VWS V14.01,2013-04-23 21:37:00,
2013-04-23 14:42:00,80.2,42.2,30.31,NNE,22,0.0,0.0,26,0.00,,SCT090,0.00,VWS V14.01,2013-04-23 21:42:00,
2013-04-23 14:47:00,73.0,38.9,30.31,NNW,338,0.0,0.0,29,0.00,,SCT090,0.00,VWS V14.01,2013-04-23 21:47:00,
2013-04-23 14:52:00,69.8,37.8,30.31,NNE,22,0.0,0.0,31,0.00,,SCT090,0.00,VWS V14.01,2013-04-23 21:52:00,
2013-04-23 14:57:00,67.2,36.4,30.30,ESE,112,0.0,0.0,32,0.00,,SCT090,0.00,VWS V14.01,2013-04-23 21:57:00,
2013-04-23 15:02:00,64.9,35.9,30.30,NE,45,0.0,0.0,34,0.00,,SCT090,0.00,VWS V14.01,2013-04-23 22:02:00,
2013-04-23 15:07:00,64.0,35.8,30.30,SE,135,0.0,0.0,35,0.00,,SCT090,0.00,VWS V14.01,2013-04-23 22:07:00,
2013-04-23 15:12:00,63.3,35.9,30.30,NNE,22,0.0,0.0,36,0.00,,SCT090,0.00,VWS V14.01,2013-04-23 22:12:00,
2013-04-23 15:17:00,62.4,35.1,30.30,NNE,22,0.0,0.0,36,0.00,,SCT090,0.00,VWS V14.01,2013-04-23 22:17:00,
2013-04-23 15:22:00,61.8,35.3,30.30,North,0,0.0,0.0,37,0.00,,SCT090,0.00,VWS V14.01,2013-04-23 22:22:00,
2013-04-23 15:27:00,61.7,35.9,30.30,NNE,22,0.0,0.0,38,0.00,,SCT090,0.00,VWS V14.01,2013-04-23 22:27:00,
2013-04-23 15:32:00,61.3,35.5,30.30,NE,45,2.6,2.6,38,0.00,,SCT090,0.00,VWS V14.01,2013-04-23 22:32:00,
2013-04-23 15:37:00,61.1,36.0,30.30,NNE,22,0.0,0.0,39,0.00,,SCT090,0.00,VWS V14.01,2013-04-23 22:37:00,
2013-04-23 15:42:00,61.3,36.2,30.30,North,0,0.0,0.0,39,0.00,,SCT090,0.00,VWS V14.01,2013-04-23 22:42:00,
2013-04-23 15:47:00,62.4,36.5,30.30,NNE,22,0.0,0.0,38,0.00,,SCT090,0.00,VWS V14.01,2013-04-23 22:47:00,
2013-04-23 15:52:00,65.1,37.5,30.30,NNE,22,0.0,0.0,36,0.00,,SCT090,0.00,VWS V14.01,2013-04-23 22:52:00,
2013-04-23 15:57:00,68.1,38.7,30.29,NE,45,0.0,0.0,34,0.00,,SCT090,0.00,VWS V14.01,2013-04-23 22:57:00,
2013-04-23 16:02:00,69.6,39.2,30.29,NNE,22,1.5,1.5,33,0.00,,CLR,0.00,VWS V14.01,2013-04-23 23:02:00,
2013-04-23 16:07:00,69.8,38.6,30.29,North,0,0.0,0.0,32,0.00,,CLR,0.00,VWS V14.01,2013-04-23 23:07:00,
2013-04-23 16:12:00,67.2,26.0,30.28,ENE,68,0.0,0.0,21,0.00,,CLR,0.00,VWS V14.01,2013-04-23 23:12:00,
2013-04-23 16:18:00,66.0,37.6,30.28,NNE,22,0.0,0.0,35,0.00,,CLR,0.00,VWS V14.01,2013-04-23 23:18:00,
2013-04-23 16:23:00,64.2,36.0,30.28,SSE,158,0.0,0.0,35,0.00,,CLR,0.00,VWS V14.01,2013-04-23 23:23:00,
2013-04-23 16:28:00,62.7,34.7,30.28,NNW,338,0.0,0.0,35,0.00,,CLR,0.00,VWS V14.01,2013-04-23 23:28:00,
2013-04-23 16:33:00,61.5,34.3,30.28,NNE,22,0.0,0.0,36,0.00,,CLR,0.00,VWS V14.01,2013-04-23 23:33:00,
2013-04-23 16:38:00,60.6,34.2,30.28,SE,135,0.0,0.0,37,0.00,,CLR,0.00,VWS V14.01,2013-04-23 23:38:00,
2013-04-23 16:43:00,59.5,33.9,30.27,SE,135,0.0,0.0,38,0.00,,CLR,0.00,VWS V14.01,2013-04-23 23:43:00,
2013-04-23 16:48:00,58.8,33.3,30.27,NW,315,0.0,0.0,38,0.00,,CLR,0.00,VWS V14.01,2013-04-23 23:48:00,
2013-04-23 16:53:00,58.6,33.1,30.27,NNE,22,0.0,0.0,38,0.00,,CLR,0.00,VWS V14.01,2013-04-23 23:53:00,
2013-04-23 16:58:00,58.1,32.7,30.27,NNE,22,0.0,0.0,38,0.00,,CLR,0.00,VWS V14.01,2013-04-23 23:58:00,
2013-04-23 17:03:00,57.9,32.5,30.27,NNE,22,0.0,0.0,38,0.00,,CLR,0.00,VWS V14.01,2013-04-24 00:03:00,
2013-04-23 17:08:00,57.5,32.1,30.27,SW,225,0.0,0.0,38,0.00,,CLR,0.00,VWS V14.01,2013-04-24 00:08:00,
2013-04-23 17:13:00,57.3,32.6,30.27,South,180,0.0,0.0,39,0.00,,CLR,0.00,VWS V14.01,2013-04-24 00:13:00,
2013-04-23 17:18:00,57.3,33.2,30.27,North,0,0.0,0.0,40,0.00,,CLR,0.00,VWS V14.01,2013-04-24 00:18:00,
2013-04-23 17:23:00,57.0,32.9,30.27,North,0,0.0,0.0,40,0.00,,CLR,0.00,VWS V14.01,2013-04-24 00:23:00,
2013-04-23 17:28:00,56.8,32.8,30.27,South,180,0.0,0.0,40,0.00,,CLR,0.00,VWS V14.01,2013-04-24 00:28:00,
2013-04-23 17:33:00,56.6,32.6,30.27,WNW,292,0.0,0.0,40,0.00,,CLR,0.00,VWS V14.01,2013-04-24 00:33:00,
2013-04-23 17:38:00,56.4,32.4,30.27,NW,315,0.0,0.0,40,0.00,,CLR,0.00,VWS V14.01,2013-04-24 00:38:00,
2013-04-23 17:43:00,56.4,32.4,30.27,NW,315,0.0,0.0,40,0.00,,CLR,0.00,VWS V14.01,2013-04-24 00:43:00,
2013-04-23 17:48:00,56.1,32.7,30.27,NE,45,0.0,0.0,41,0.00,,CLR,0.00,VWS V14.01,2013-04-24 00:48:00,
2013-04-23 17:53:00,56.1,32.7,30.27,WNW,292,0.0,0.0,41,0.00,,CLR,0.00,VWS V14.01,2013-04-24 00:53:00,
2013-04-23 17:58:00,55.9,32.6,30.27,WNW,292,0.0,0.0,41,0.00,,CLR,0.00,VWS V14.01,2013-04-24 00:58:00,
2013-04-23 18:03:00,55.7,32.4,30.27,NE,45,0.0,0.0,41,0.00,,CLR,0.00,VWS V14.01,2013-04-24 01:03:00,
2013-04-23 18:08:00,55.5,32.2,30.27,SSE,158,0.0,0.0,41,0.00,,CLR,0.00,VWS V14.01,2013-04-24 01:08:00,
2013-04-23 18:14:00,55.5,32.8,30.27,West,270,0.0,0.0,42,0.00,,CLR,0.00,VWS V14.01,2013-04-24 01:14:00,
2013-04-23 18:19:00,55.2,33.1,30.27,NW,315,0.0,0.0,43,0.00,,CLR,0.00,VWS V14.01,2013-04-24 01:19:00,
2013-04-23 18:24:00,55.0,32.9,30.27,WNW,292,0.0,0.0,43,0.00,,CLR,0.00,VWS V14.01,2013-04-24 01:24:00,
2013-04-23 18:29:00,54.8,33.3,30.27,NE,45,0.0,0.0,44,0.00,,CLR,0.00,VWS V14.01,2013-04-24 01:29:00,
2013-04-23 18:34:00,54.5,33.0,30.27,SE,135,0.0,0.0,44,0.00,,CLR,0.00,VWS V14.01,2013-04-24 01:34:00,
2013-04-23 18:39:00,54.3,32.9,30.27,SSE,158,0.0,0.0,44,0.00,,CLR,0.00,VWS V14.01,2013-04-24 01:39:00,
2013-04-23 18:44:00,54.1,32.7,30.27,ESE,112,0.0,0.0,44,0.00,,CLR,0.00,VWS V14.01,2013-04-24 01:44:00,
2013-04-23 18:49:00,53.9,33.1,30.27,NE,45,0.0,0.0,45,0.00,,CLR,0.00,VWS V14.01,2013-04-24 01:49:00,
2013-04-23 18:54:00,53.7,32.9,30.27,NW,315,0.0,0.0,45,0.00,,CLR,0.00,VWS V14.01,2013-04-24 01:54:00,
2013-04-23 18:59:00,53.6,33.3,30.27,West,270,0.0,0.0,46,0.00,,CLR,0.00,VWS V14.01,2013-04-24 01:59:00,
2013-04-23 19:04:00,53.2,33.0,30.27,South,180,0.0,0.0,46,0.00,,CLR,0.00,VWS V14.01,2013-04-24 02:04:00,
2013-04-23 19:09:00,53.2,33.5,30.27,ESE,112,0.0,0.0,47,0.00,,CLR,0.00,VWS V14.01,2013-04-24 02:09:00,
2013-04-23 19:14:00,52.8,33.2,30.27,East,90,0.0,0.0,47,0.00,,CLR,0.00,VWS V14.01,2013-04-24 02:14:00,
2013-04-23 19:19:00,52.5,33.4,30.27,NNE,22,0.0,0.0,48,0.00,,CLR,0.00,VWS V14.01,2013-04-24 02:19:00,
2013-04-23 19:24:00,52.1,33.0,30.27,NNE,22,0.0,0.0,48,0.00,,CLR,0.00,VWS V14.01,2013-04-24 02:24:00,
2013-04-23 19:30:00,51.9,32.8,30.27,WSW,248,0.0,0.0,48,0.00,,CLR,0.00,VWS V14.01,2013-04-24 02:30:00,
2013-04-23 19:35:00,51.6,32.6,30.27,WSW,248,0.0,0.0,48,0.00,,CLR,0.00,VWS V14.01,2013-04-24 02:35:00,
2013-04-23 19:40:00,51.4,32.9,30.27,WSW,248,0.0,0.0,49,0.00,,CLR,0.00,VWS V14.01,2013-04-24 02:40:00,
2013-04-23 19:45:00,51.4,32.9,30.27,WSW,248,0.0,0.0,49,0.00,,CLR,0.00,VWS V14.01,2013-04-24 02:45:00,
2013-04-23 19:50:00,51.0,32.5,30.27,WSW,248,0.0,0.0,49,0.00,,CLR,0.00,VWS V14.01,2013-04-24 02:50:00,
2013-04-23 19:55:00,50.7,32.2,30.27,WSW,248,0.0,0.0,49,0.00,,CLR,0.00,VWS V14.01,2013-04-24 02:55:00,
2013-04-23 20:00:00,50.7,32.8,30.27,WSW,248,0.0,0.0,50,0.00,,CLR,0.00,VWS V14.01,2013-04-24 03:00:00,
2013-04-23 20:05:00,50.3,32.4,30.27,WSW,248,0.0,0.0,50,0.00,,CLR,0.00,VWS V14.01,2013-04-24 03:05:00,
2013-04-23 20:10:00,50.1,32.7,30.27,WSW,248,0.0,0.0,51,0.00,,CLR,0.00,VWS V14.01,2013-04-24 03:10:00,
2013-04-23 20:16:00,49.8,32.4,30.28,WSW,248,0.0,0.0,51,0.00,,CLR,0.00,VWS V14.01,2013-04-24 03:16:00,
2013-04-23 20:21:00,49.6,32.7,30.29,WSW,248,0.0,0.0,52,0.00,,CLR,0.00,VWS V14.01,2013-04-24 03:21:00,
2013-04-23 20:26:00,49.2,32.3,30.29,WSW,248,0.0,0.0,52,0.00,,CLR,0.00,VWS V14.01,2013-04-24 03:26:00,
2013-04-23 20:31:00,49.1,32.2,30.29,WSW,248,0.0,0.0,52,0.00,,CLR,0.00,VWS V14.01,2013-04-24 03:31:00,
2013-04-23 20:36:00,48.7,32.3,30.29,WSW,248,0.0,0.0,53,0.00,,CLR,0.00,VWS V14.01,2013-04-24 03:36:00,
2013-04-23 20:43:00,48.3,32.0,30.29,WSW,248,0.0,0.0,53,0.00,,CLR,0.00,VWS V14.01,2013-04-24 03:43:00,
2013-04-23 20:48:00,48.2,32.3,30.29,WSW,248,0.0,0.0,54,0.00,,CLR,0.00,VWS V14.01,2013-04-24 03:48:00,
2013-04-23 20:53:00,47.8,32.0,30.29,WSW,248,0.0,0.0,54,0.00,,CLR,0.00,VWS V14.01,2013-04-24 03:53:00,
2013-04-23 20:59:00,47.4,32.1,30.30,WSW,248,0.0,0.0,55,0.00,,CLR,0.00,VWS V14.01,2013-04-24 03:59:00,
2013-04-23 21:01:00,47.3,32.0,30.30,WSW,248,0.0,0.0,55,0.00,,CLR,0.00,VWS V14.01,2013-04-24 04:01:00,
2013-04-23 21:02:00,47.1,31.8,30.30,WSW,248,0.0,0.0,55,0.00,,CLR,0.00,VWS V14.01,2013-04-24 04:02:00,
2013-04-23 21:03:00,47.1,31.8,30.30,WSW,248,0.0,0.0,55,0.00,,CLR,0.00,VWS V14.01,2013-04-24 04:03:00,
2013-04-23 21:04:00,47.1,31.8,30.30,WSW,248,0.0,0.0,55,0.00,,CLR,0.00,VWS V14.01,2013-04-24 04:04:00,
2013-04-23 21:09:00,46.5,31.7,30.30,WSW,248,0.0,0.0,56,0.00,,CLR,0.00,VWS V14.01,2013-04-24 04:09:00,
2013-04-23 21:14:00,46.4,31.6,30.30,WSW,248,0.0,0.0,56,0.00,,CLR,0.00,VWS V14.01,2013-04-24 04:14:00,
2013-04-23 21:19:00,46.0,31.2,30.30,WSW,248,0.0,0.0,56,0.00,,CLR,0.00,VWS V14.01,2013-04-24 04:19:00,
2013-04-23 21:24:00,45.6,31.3,30.30,WSW,248,0.0,0.0,57,0.00,,CLR,0.00,VWS V14.01,2013-04-24 04:24:00,
2013-04-23 21:29:00,45.5,31.6,30.30,WSW,248,0.0,0.0,58,0.00,,CLR,0.00,VWS V14.01,2013-04-24 04:29:00,
2013-04-23 21:34:00,45.1,31.6,30.30,WSW,248,0.0,0.0,59,0.00,,CLR,0.00,VWS V14.01,2013-04-24 04:34:00,
2013-04-23 21:39:00,44.9,31.9,30.31,WSW,248,0.0,0.0,60,0.00,,CLR,0.00,VWS V14.01,2013-04-24 04:39:00,
2013-04-23 21:44:00,44.6,32.0,30.31,WSW,248,0.0,0.0,61,0.00,,CLR,0.00,VWS V14.01,2013-04-24 04:44:00,
2013-04-23 21:50:00,44.4,31.8,30.31,WSW,248,0.0,0.0,61,0.00,,CLR,0.00,VWS V14.01,2013-04-24 04:50:00,
2013-04-23 21:55:00,44.0,32.2,30.31,WSW,248,0.0,0.0,63,0.00,,CLR,0.00,VWS V14.01,2013-04-24 04:55:00,
2013-04-23 22:00:00,43.8,32.0,30.30,WSW,248,0.0,0.0,63,0.00,,CLR,0.00,VWS V14.01,2013-04-24 05:00:00,
2013-04-23 22:05:00,43.7,32.0,30.31,WSW,248,0.0,0.0,63,0.00,,CLR,0.00,VWS V14.01,2013-04-24 05:05:00,
2013-04-23 22:10:00,43.5,32.2,30.31,WSW,248,0.0,0.0,64,0.00,,CLR,0.00,VWS V14.01,2013-04-24 05:10:00,
2013-04-23 22:15:00,43.5,32.2,30.31,WSW,248,0.0,0.0,64,0.00,,CLR,0.00,VWS V14.01,2013-04-24 05:15:00,
2013-04-23 22:20:00,43.5,32.5,30.31,WSW,248,0.0,0.0,65,0.00,,CLR,0.00,VWS V14.01,2013-04-24 05:20:00,
2013-04-23 22:25:00,43.1,32.2,30.31,WSW,248,0.0,0.0,65,0.00,,CLR,0.00,VWS V14.01,2013-04-24 05:25:00,
2013-04-23 22:30:00,42.9,32.3,30.31,WSW,248,0.0,0.0,66,0.00,,CLR,0.00,VWS V14.01,2013-04-24 05:30:00,
2013-04-23 22:35:00,42.9,32.3,30.31,WSW,248,0.0,0.0,66,0.00,,CLR,0.00,VWS V14.01,2013-04-24 05:35:00,
2013-04-23 22:40:00,42.6,32.0,30.31,WSW,248,0.0,0.0,66,0.00,,CLR,0.00,VWS V14.01,2013-04-24 05:40:00,
2013-04-23 22:45:00,42.6,32.0,30.31,WSW,248,0.0,0.0,66,0.00,,CLR,0.00,VWS V14.01,2013-04-24 05:45:00,
2013-04-23 22:50:00,42.6,32.4,30.31,WSW,248,0.0,0.0,67,0.00,,CLR,0.00,VWS V14.01,2013-04-24 05:50:00,
2013-04-23 22:55:00,42.6,32.4,30.31,WSW,248,0.0,0.0,67,0.00,,CLR,0.00,VWS V14.01,2013-04-24 05:55:00,
2013-04-23 23:00:00,42.6,32.8,30.31,WSW,248,0.0,0.0,68,0.00,,CLR,0.00,VWS V14.01,2013-04-24 06:00:00,
2013-04-23 23:05:00,42.6,32.8,30.32,WSW,248,0.0,0.0,68,0.00,,CLR,0.00,VWS V14.01,2013-04-24 06:05:00,
2013-04-23 23:10:00,42.4,32.6,30.32,WSW,248,0.0,0.0,68,0.00,,CLR,0.00,VWS V14.01,2013-04-24 06:10:00,
2013-04-23 23:15:00,42.2,32.8,30.31,WSW,248,0.0,0.0,69,0.00,,CLR,0.00,VWS V14.01,2013-04-24 06:15:00,
2013-04-23 23:20:00,42.0,32.6,30.31,WSW,248,0.0,0.0,69,0.00,,CLR,0.00,VWS V14.01,2013-04-24 06:20:00,
2013-04-23 23:25:00,42.4,33.0,30.31,WSW,248,0.0,0.0,69,0.00,,CLR,0.00,VWS V14.01,2013-04-24 06:25:00,
2013-04-23 23:30:00,42.4,33.3,30.31,WSW,248,0.0,0.0,70,0.00,,CLR,0.00,VWS V14.01,2013-04-24 06:30:00,
2013-04-23 23:35:00,42.6,33.5,30.32,WSW,248,0.0,0.0,70,0.00,,CLR,0.00,VWS V14.01,2013-04-24 06:35:00,
2013-04-23 23:40:00,42.8,33.3,30.32,WSW,248,0.0,0.0,69,0.00,,CLR,0.00,VWS V14.01,2013-04-24 06:40:00,
2013-04-23 23:45:00,42.9,33.4,30.32,WSW,248,0.0,0.0,69,0.00,,CLR,0.00,VWS V14.01,2013-04-24 06:45:00,
2013-04-23 23:50:00,42.9,33.4,30.32,WSW,248,0.0,0.0,69,0.00,,CLR,0.00,VWS V14.01,2013-04-24 06:50:00,
2013-04-23 23:55:00,42.8,33.3,30.32,WSW,248,0.0,0.0,69,0.00,,CLR,0.00,VWS V14.01,2013-04-24 06:55:00,